QPF
0.00 0.00 0.00 0.00 0.03 0.00 0.00 0.00 0.00 0.00 0.00 0.00 0.00 0.00 0.00 0.00 0.01 0.02 0.25 0.21 0.05 0.10 0.12 0.11 0.17 0.16 0.08 0.02 0.03 0.00 0.00 0.00 0.00 0.00 0.01 0.02 0.03 0.03 0.01 0.00 0.01 0.03 0.03 0.00 0.00 0.00 0.00 0.00 0.00
0.00 0.00 0.00 0.00 0.00 0.00 0.00 0.00 0.00 0.00 0.00 0.00 0.00 0.00 0.00 0.00 0.00 0.08 0.17 0.25 0.14 0.17 0.08 0.13 0.21 0.13 0.05 0.01 0.02 0.00 0.00 0.01 0.01 0.01 0.02 0.03 0.07 0.08 0.03 0.00 0.03 0.02 0.00 0.00 0.01 0.03 0.00 0.00 0.00
0.00 0.00 0.00 0.00 0.00 0.00 0.00 0.00 0.00 0.00 0.00 0.00 0.00 0.00 0.00 0.00 0.01 0.16 0.15 0.23 0.14 0.16 0.11 0.11 0.13 0.10 0.05 0.01 0.04 0.02 0.02 0.03 0.03 0.04 0.03 0.03 0.03 0.05 0.02 0.01 0.01 0.00 0.00 0.01 0.01 0.00 0.00 0.00 0.00
0.00 0.00 0.00 0.00 0.00 0.00 0.00 0.00 0.00 0.00 0.00 0.00 0.00 0.00 0.00 0.00 0.01 0.07 0.11 0.12 0.12 0.21 0.16 0.14 0.10 0.07 0.08 0.06 0.08 0.07 0.05 0.02 0.01 0.01 0.00 0.00 0.00 0.00 0.01 0.02 0.00 0.00 0.00 0.00 0.00 0.01 0.00 0.00 0.00
0.00 0.00 0.00 0.00 0.00 0.00 0.00 0.00 0.00 0.00 0.00 0.00 0.00 0.00 0.02 0.03 0.01 0.07 0.15 0.08 0.07 0.08 0.09 0.11 0.11 0.16 0.10 0.10 0.09 0.04 0.02 0.02 0.02 0.02 0.01 0.01 0.00 0.00 0.00 0.00 0.00 0.00 0.00 0.01 0.01 0.01 0.00 0.00 0.00
0.00 0.01 0.00 0.00 0.00 0.00 0.00 0.00 0.00 0.00 0.00 0.00 0.00 0.00 0.02 0.03 0.02 0.09 0.15 0.14 0.01 0.00 0.02 0.04 0.07 0.12 0.14 0.12 0.11 0.08 0.04 0.02 0.01 0.00 0.00 0.00 0.00 0.00 0.00 0.00 0.00 0.00 0.01 0.00 0.00 0.00 0.00 0.00 0.00
0.00 0.00 0.00 0.00 0.00 0.00 0.00 0.00 0.00 0.00 0.00 0.00 0.00 0.00 0.02 0.01 0.03 0.02 0.06 0.07 0.00 0.00 0.01 0.01 0.00 0.00 0.00 0.04 0.07 0.10 0.10 0.02 0.01 0.00 0.00 0.00 0.01 0.00 0.00 0.00 0.00 0.00 0.00 0.00 0.00 0.00 0.00 0.00 0.00
0.00 0.00 0.00 0.00 0.00 0.00 0.00 0.00 0.00 0.00 0.00 0.00 0.00 0.00 0.01 0.01 0.01 0.02 0.12 0.04 0.01 0.02 0.02 0.00 0.00 0.00 0.00 0.00 0.00 0.02 0.08 0.04 0.01 0.00 0.00 0.00 0.00 0.00 0.00 0.00 0.00 0.00 0.00 0.00 0.00 0.00 0.00 0.00 0.00
0.00 0.00 0.00 0.00 0.00 0.00 0.00 0.00 0.00 0.00 0.00 0.00 0.00 0.00 0.00 0.00 0.00 0.05 0.13 0.07 0.12 0.18 0.07 0.02 0.00 0.00 0.00 0.00 0.00 0.00 0.01 0.00 0.00 0.00 0.01 0.05 0.01 0.02 0.01 0.00 0.00 0.00 0.00 0.00 0.00 0.00 0.00 0.00 0.00
0.00 0.00 0.00 0.00 0.00 0.00 0.00 0.00 0.00 0.00 0.00 0.00 0.00 0.00 0.00 0.00 0.00 0.02 0.08 0.04 0.07 0.09 0.10 0.04 0.00 0.00 0.00 0.00 0.00 0.00 0.01 0.02 0.00 0.00 0.01 0.03 0.00 0.00 0.00 0.00 0.00 0.00 0.00 0.00 0.00 0.00 0.00 0.00 0.00
0.00 0.00 0.00 0.00 0.00 0.00 0.00 0.00 0.00 0.00 0.00 0.00 0.00 0.00 0.00 0.00 0.00 0.00 0.00 0.00 0.01 0.01 0.04 0.01 0.00 0.00 0.00 0.00 0.00 0.00 0.02 0.00 0.01 0.00 0.01 0.01 0.00 0.01 0.01 0.01 0.00 0.00 0.01 0.00 0.00 0.00 0.00 0.00 0.00
0.00 0.00 0.00 0.00 0.00 0.00 0.00 0.00 0.00 0.00 0.00 0.00 0.00 0.00 0.00 0.00 0.00 0.00 0.00 0.00 0.00 0.00 0.00 0.00 0.00 0.00 0.00 0.00 0.00 0.01 0.01 0.00 0.02 0.00 0.00 0.00 0.00 0.01 0.00 0.01 0.00 0.00 0.00 0.01 0.00 0.00 0.00 0.00 0.00
0.00 0.00 0.00 0.00 0.00 0.00 0.00 0.00 0.00 0.00 0.00 0.00 0.00 0.00 0.00 0.00 0.00 0.00 0.00 0.00 0.00 0.00 0.00 0.00 0.00 0.01 0.01 0.00 0.01 0.02 0.01 0.00 0.01 0.00 0.00 0.00 0.00 0.02 0.02 0.02 0.00 0.00 0.00 0.00 0.00 0.00 0.00 0.00 0.00
0.00 0.00 0.00 0.00 0.00 0.00 0.00 0.00 0.00 0.00 0.00 0.00 0.00 0.00 0.00 0.00 0.00 0.00 0.00 0.00 0.00 0.00 0.00 0.00 0.00 0.00 0.06 0.09 0.05 0.01 0.00 0.00 0.00 0.00 0.01 0.00 0.00 0.00 0.01 0.00 0.00 0.01 0.00 0.00 0.00 0.00 0.00 0.00 0.00
0.00 0.00 0.00 0.00 0.00 0.00 0.00 0.01 0.00 0.00 0.00 0.00 0.00 0.00 0.00 0.00 0.00 0.00 0.00 0.00 0.00 0.00 0.00 0.00 0.00 0.01 0.07 0.07 0.03 0.01 0.00 0.00 0.00 0.00 0.01 0.00 0.00 0.00 0.00 0.00 0.00 0.00 0.01 0.01 0.00 0.00 0.00 0.00 0.00
0.00 0.00 0.00 0.00 0.00 0.00 0.00 0.00 0.00 0.00 0.00 0.00 0.00 0.00 0.00 0.00 0.00 0.00 0.00 0.00 0.00 0.00 0.00 0.00 0.00 0.00 0.00 0.01 0.01 0.00 0.00 0.00 0.00 0.00 0.00 0.00 0.00 0.00 0.00 0.00 0.00 0.00 0.00 0.00 0.00 0.00 0.00 0.00 0.00
0.00 0.00 0.00 0.00 0.00 0.00 0.00 0.00 0.00 0.00 0.00 0.00 0.00 0.00 0.00 0.00 0.00 0.00 0.00 0.00 0.00 0.00 0.00 0.00 0.00 0.00 0.00 0.00 0.00 0.00 0.00 0.00 0.00 0.00 0.00 0.00 0.00 0.00 0.00 0.00 0.00 0.02 0.02 0.01 0.00 0.00 0.00 0.00 0.00
0.00 0.00 0.00 0.00 0.00 0.00 0.00 0.00 0.00 0.00 0.00 0.00 0.00 0.00 0.00 0.00 0.00 0.00 0.00 0.00 0.00 0.00 0.00 0.00 0.00 0.00 0.00 0.00 0.00 0.00 0.00 0.00 0.00 0.00 0.00 0.00 0.00 0.00 0.00 0.00 0.01 0.03 0.02 0.01 0.01 0.01 0.01 0.00 0.00
0.00 0.00 0.00 0.00 0.00 0.00 0.00 0.00 0.00 0.00 0.00 0.00 0.00 0.00 0.00 0.00 0.00 0.00 0.00 0.00 0.00 0.00 0.00 0.00 0.00 0.00 0.00 0.00 0.00 0.00 0.00 0.00 0.00 0.00 0.00 0.00 0.00 0.00 0.02 0.02 0.01 0.02 0.11 0.15 0.16 0.11 0.04 0.03 0.06
0.00 0.00 0.00 0.00 0.00 0.00 0.00 0.00 0.00 0.00 0.00 0.00 0.00 0.00 0.00 0.00 0.00 0.00 0.00 0.00 0.00 0.00 0.00 0.00 0.00 0.00 0.00 0.00 0.00 0.00 0.01 0.00 0.00 0.03 0.06 0.06 0.01 0.08 0.08 0.16 0.07 0.09 0.03 0.16 0.34 0.22 0.13 0.06 0.15
0.00 0.00 0.00 0.00 0.00 0.00 0.00 0.00 0.00 0.00 0.00 0.00 0.00 0.00 0.00 0.00 0.00 0.00 0.00 0.00 0.00 0.00 0.00 0.00 0.00 0.00 0.00 0.00 0.00 0.01 0.03 0.03 0.15 0.30 0.14 0.12 0.32 0.26 0.14 0.13 0.12 0.21 0.16 0.20 0.36 0.30 0.19 0.07 0.16
0.00 0.00 0.00 0.00 0.00 0.00 0.00 0.00 0.00 0.00 0.00 0.00 0.00 0.00 0.00 0.00 0.00 0.00 0.00 0.00 0.00 0.00 0.00 0.00 0.00 0.00 0.00 0.00 0.00 0.01 0.07 0.09 0.14 0.19 0.18 0.06 0.03 0.01 0.01 0.01 0.08 0.06 0.14 0.14 0.06 0.11 0.17 0.18 0.11
0.00 0.00 0.00 0.00 0.00 0.00 0.00 0.00 0.00 0.00 0.00 0.00 0.00 0.00 0.00 0.00 0.00 0.00 0.00 0.00 0.00 0.00 0.00 0.00 0.00 0.00 0.00 0.00 0.00 0.00 0.00 0.00 0.00 0.01 0.00 0.00 0.00 0.01 0.01 0.00 0.01 0.01 0.01 0.03 0.02 0.03 0.06 0.12 0.13
0.00 0.00 0.00 0.00 0.00 0.00 0.00 0.00 0.00 0.00 0.00 0.00 0.00 0.00 0.00 0.00 0.00 0.00 0.00 0.00 0.00 0.00 0.00 0.00 0.00 0.00 0.00 0.00 0.00 0.00 0.01 0.00 0.01 0.00 0.00 0.00 0.00 0.00 0.01 0.00 0.00 0.00 0.00 0.01 0.01 0.01 0.01 0.02 0.03
0.00 0.00 0.00 0.00 0.00 0.00 0.00 0.00 0.00 0.00 0.00 0.00 0.00 0.00 0.00 0.00 0.00 0.00 0.00 0.00 0.00 0.00 0.00 0.00 0.00 0.00 0.00 0.00 0.00 0.00 0.00 0.00 0.00 0.00 0.00 0.00 0.00 0.00 0.00 0.00 0.00 0.00 0.00 0.00 0.00 0.00 0.00 0.01 0.01
0.00 0.00 0.00 0.00 0.00 0.00 0.00 0.00 0.00 0.00 0.00 0.00 0.00 0.00 0.00 0.00 0.00 0.00 0.00 0.00 0.00 0.00 0.00 0.00 0.00 0.00 0.00 0.00 0.00 0.00 0.00 0.00 0.00 0.00 0.00 0.00 0.00 0.00 0.00 0.00 0.00 0.00 0.00 0.00 0.00 0.00 0.00 0.00 0.00
0.00 0.00 0.00 0.00 0.00 0.00 0.00 0.00 0.00 0.00 0.00 0.00 0.00 0.00 0.00 0.00 0.00 0.00 0.00 0.00 0.00 0.00 0.00 0.00 0.00 0.00 0.00 0.00 0.00 0.00 0.00 0.00 0.01 0.02 0.02 0.00 0.00 0.00 0.00 0.00 0.00 0.00 0.00 0.00 0.00 0.00 0.00 0.00 0.00
0.00 0.00 0.00 0.00 0.00 0.00 0.00 0.00 0.00 0.00 0.00 0.00 0.00 0.00 0.00 0.00 0.00 0.00 0.00 0.00 0.00 0.00 0.00 0.00 0.00 0.00 0.00 0.00 0.00 0.00 0.00 0.00 0.01 0.02 0.01 0.00 0.00 0.00 0.00 0.00 0.00 0.00 0.00 0.00 0.00 0.00 0.00 0.00 0.00
0.00 0.00 0.00 0.00 0.00 0.00 0.00 0.00 0.00 0.00 0.00 0.00 0.00 0.00 0.00 0.00 0.00 0.00 0.00 0.01 0.01 0.00 0.00 0.00 0.00 0.00 0.00 0.00 0.00 0.01 0.02 0.05 0.04 0.02 0.00 0.00 0.00 0.00 0.00 0.00 0.00 0.00 0.00 0.00 0.00 0.00 0.00 0.00 0.00
0.00 0.00 0.00 0.00 0.00 0.00 0.00 0.00 0.00 0.00 0.00 0.00 0.00 0.00 0.00 0.00 0.00 0.00 0.00 0.01 0.01 0.00 0.00 0.00 0.00 0.00 0.00 0.00 0.00 0.02 0.06 0.04 0.04 0.01 0.00 0.00 0.00 0.00 0.00 0.00 0.00 0.00 0.00 0.00 0.00 0.00 0.00 0.00 0.01
MSLP
1006.81 1006.51 1006.02 1004.67 1004.27 1001.50 1001.48 1001.66 1001.67 1001.89 1002.26 1002.84 1003.97 1004.80 1006.95 1007.92 1008.85 1011.96 1013.25 1013.98 1013.96 1014.54 1015.20 1015.62 1015.96 1015.96 1016.12 1016.16 1016.13 1016.33 1016.47 1016.70 1016.89 1016.88 1017.20 1017.45 1017.59 1017.48 1017.51 1017.65 1017.86 1018.09 1018.11 1018.22 1018.22 1018.39 1018.37 1018.37 1018.32
1005.71 1005.07 1004.29 1003.59 1002.29 1000.49 1001.10 1001.37 1001.89 1002.25 1002.45 1003.45 1004.75 1005.97 1007.57 1009.52 1010.71 1012.25 1012.92 1013.42 1013.72 1014.75 1015.53 1016.14 1016.25 1015.91 1016.53 1016.62 1016.61 1016.79 1016.97 1017.14 1017.30 1017.59 1017.59 1017.76 1017.82 1017.95 1017.98 1018.10 1018.21 1018.31 1018.44 1018.57 1018.65 1018.65 1018.78 1018.70 1018.61
1006.22 1004.45 1003.70 1002.12 1000.35 1000.59 1000.80 1001.02 1001.89 1002.63 1003.00 1003.69 1005.51 1007.32 1008.47 1010.44 1011.17 1012.61 1013.27 1013.75 1014.69 1015.66 1016.37 1016.54 1016.76 1016.69 1016.89 1017.09 1017.22 1017.20 1017.40 1017.53 1017.80 1017.99 1018.03 1018.17 1018.08 1018.13 1018.18 1018.32 1018.51 1018.64 1018.71 1018.84 1018.84 1018.94 1019.09 1018.98 1018.93
1003.97 1002.87 1002.60 1000.16 1000.32 1000.77 1001.37 1001.60 1001.90 1002.64 1003.67 1005.12 1005.77 1008.59 1010.37 1010.82 1011.75 1012.98 1013.58 1013.85 1015.12 1016.37 1016.62 1017.05 1017.08 1017.17 1017.33 1017.57 1017.75 1017.68 1017.90 1018.06 1018.15 1018.29 1018.25 1018.33 1018.39 1018.32 1018.45 1018.55 1018.72 1018.81 1018.95 1019.05 1019.26 1019.20 1019.31 1019.20 1019.08
1003.56 1002.41 1001.50 1000.09 1000.36 1000.61 1001.16 1001.90 1002.80 1003.61 1004.86 1006.32 1007.96 1010.15 1011.39 1012.22 1012.58 1013.42 1013.98 1014.56 1015.58 1016.61 1017.36 1017.48 1017.61 1017.72 1017.93 1017.99 1018.12 1018.14 1018.24 1018.49 1018.59 1018.69 1018.64 1018.55 1018.72 1018.73 1018.78 1018.83 1019.03 1019.12 1019.19 1019.31 1019.40 1019.50 1019.46 1019.40 1019.32
1005.74 1005.34 1001.91 1000.30 1000.24 1001.12 1001.03 1001.25 1002.15 1003.37 1005.03 1006.56 1008.32 1010.41 1012.31 1012.83 1013.54 1014.34 1014.67 1015.17 1016.05 1017.06 1017.63 1018.09 1018.35 1018.40 1018.50 1018.65 1018.54 1018.56 1018.66 1018.72 1018.84 1018.85 1018.84 1018.83 1018.98 1019.04 1019.11 1019.29 1019.32 1019.39 1019.37 1019.47 1019.59 1019.75 1019.61 1019.38 1019.29
1003.19 1003.93 1002.00 1000.47 1000.26 1000.57 1000.92 1001.80 1002.44 1003.56 1004.50 1006.02 1007.93 1010.24 1012.79 1013.21 1014.00 1014.64 1015.24 1015.97 1016.55 1017.38 1018.04 1018.49 1018.69 1018.63 1018.68 1018.84 1019.02 1018.97 1019.13 1019.25 1019.16 1019.16 1019.15 1019.08 1019.15 1019.27 1019.41 1019.54 1019.59 1019.58 1019.52 1019.59 1019.69 1019.82 1019.82 1019.46 1019.13
1000.63 1000.93 1000.23 999.59 999.93 1000.44 1000.99 1001.86 1002.74 1003.58 1004.50 1005.91 1007.12 1009.87 1012.43 1013.40 1013.85 1014.82 1015.80 1016.77 1017.39 1017.78 1018.25 1018.39 1018.86 1018.93 1018.69 1018.91 1019.08 1019.22 1019.40 1019.45 1019.39 1019.26 1019.16 1019.15 1019.35 1019.52 1019.48 1019.66 1019.70 1019.68 1019.54 1019.54 1019.62 1019.72 1019.66 1019.34 1019.02
998.91 998.84 999.46 999.60 999.84 1001.27 1001.35 1002.33 1003.49 1004.15 1005.18 1006.45 1007.90 1009.88 1012.41 1013.17 1013.85 1015.15 1016.18 1017.19 1017.63 1018.10 1018.49 1018.74 1018.63 1018.85 1018.84 1019.01 1018.88 1019.09 1019.31 1019.47 1019.36 1019.20 1019.25 1019.25 1019.29 1019.52 1019.50 1019.56 1019.61 1019.60 1019.57 1019.55 1019.46 1019.50 1019.41 1019.19 1019.00
998.36 998.35 999.12 999.63 999.91 1000.36 1001.20 1002.39 1003.63 1004.87 1006.26 1007.65 1008.95 1010.85 1011.91 1012.93 1013.56 1014.66 1015.56 1016.40 1017.25 1017.90 1018.31 1018.28 1018.59 1018.81 1018.87 1018.79 1018.98 1019.26 1019.27 1019.53 1019.24 1019.16 1019.08 1019.05 1019.09 1019.30 1019.29 1019.45 1019.55 1019.53 1019.55 1019.45 1019.47 1019.49 1019.32 1019.16 1018.66
998.09 998.48 998.94 999.83 1000.00 1000.58 1001.20 1002.66 1003.57 1004.59 1006.20 1007.85 1008.73 1009.96 1011.32 1012.19 1013.12 1014.34 1014.88 1015.89 1016.49 1017.33 1017.99 1018.04 1018.36 1018.66 1018.82 1018.83 1019.10 1019.23 1019.38 1019.15 1019.06 1019.10 1019.11 1018.97 1018.99 1019.18 1019.19 1019.45 1019.33 1019.34 1019.31 1019.19 1019.13 1019.13 1019.14 1018.58 1018.17
998.76 999.18 999.25 999.63 999.87 1000.26 1001.04 1001.96 1003.42 1004.59 1006.39 1007.93 1008.83 1009.29 1011.02 1011.76 1013.06 1013.84 1014.64 1015.33 1015.70 1016.61 1017.17 1017.66 1018.10 1018.50 1018.98 1019.18 1019.40 1019.30 1019.31 1019.10 1018.96 1018.81 1018.92 1018.99 1018.87 1018.97 1018.71 1018.84 1018.86 1018.84 1018.93 1018.99 1018.75 1018.73 1018.60 1018.16 1018.03
998.72 999.23 999.23 999.76 1000.14 1000.62 1001.23 1002.48 1004.06 1005.66 1007.00 1008.14 1008.85 1009.29 1009.95 1011.26 1012.49 1013.21 1014.05 1014.48 1015.03 1015.94 1016.59 1016.98 1017.28 1018.54 1019.04 1019.24 1019.38 1019.33 1019.22 1018.98 1018.86 1018.61 1018.59 1018.71 1018.94 1019.08 1018.90 1018.79 1018.45 1018.47 1018.59 1018.68 1018.69 1018.70 1018.41 1018.35 1018.27
999.39 999.57 999.46 999.89 1000.54 1000.59 1001.42 1002.96 1004.46 1006.15 1007.16 1008.13 1008.85 1009.25 1009.74 1011.01 1011.81 1012.45 1013.30 1013.66 1014.63 1015.41 1016.03 1016.50 1017.39 1018.28 1019.06 1019.15 1019.12 1019.12 1018.88 1018.50 1018.35 1018.13 1018.09 1018.59 1018.80 1018.92 1018.78 1018.65 1018.55 1018.42 1018.41 1018.54 1018.52 1018.57 1018.63 1018.57 1018.40
999.82 999.62 999.43 999.92 1000.45 1000.63 1002.26 1003.71 1004.71 1006.08 1007.03 1007.84 1008.54 1009.05 1009.81 1010.41 1011.09 1011.69 1012.37 1013.17 1013.85 1014.72 1015.44 1016.15 1016.77 1017.79 1018.64 1018.86 1018.39 1018.27 1017.71 1017.84 1017.72 1017.59 1017.72 1018.03 1018.34 1018.54 1018.58 1018.64 1018.48 1018.36 1018.50 1018.54 1018.56 1018.57 1018.51 1018.40 1018.14
999.63 999.05 998.93 999.61 1000.10 1000.78 1002.43 1003.22 1004.50 1005.85 1006.81 1007.53 1008.24 1008.85 1009.73 1010.36 1011.12 1011.62 1012.15 1012.72 1013.36 1013.85 1014.92 1015.56 1015.87 1016.64 1017.26 1017.38 1017.30 1017.22 1017.23 1017.06 1016.87 1016.66 1016.87 1017.23 1017.57 1017.73 1018.14 1018.01 1017.91 1017.73 1017.98 1018.20 1018.34 1018.52 1018.53 1018.40 1018.17
998.72 998.33 998.50 999.33 999.61 1000.43 1001.44 1002.61 1003.99 1005.07 1006.18 1007.09 1007.90 1008.65 1009.44 1010.13 1010.82 1011.49 1012.16 1012.73 1013.36 1013.80 1014.56 1015.15 1015.37 1015.97 1016.48 1016.69 1016.96 1016.98 1016.97 1016.86 1016.76 1016.46 1016.21 1016.64 1016.80 1017.24 1017.61 1017.43 1017.16 1017.33 1017.84 1018.00 1018.07 1018.16 1018.29 1018.27 1018.17
997.44 997.32 997.97 998.61 999.51 999.61 1000.85 1002.26 1003.33 1004.08 1005.16 1006.46 1007.36 1008.21 1008.95 1009.69 1010.39 1011.24 1011.81 1012.41 1013.05 1013.76 1014.48 1015.04 1015.39 1015.66 1016.07 1016.46 1016.67 1016.72 1016.69 1016.74 1016.81 1016.55 1016.27 1016.24 1016.93 1017.40 1017.68 1017.66 1017.22 1017.22 1017.38 1017.64 1017.61 1017.66 1017.85 1017.92 1017.96
997.63 996.88 997.31 998.12 999.20 999.34 1000.04 1001.43 1002.34 1003.08 1004.06 1005.29 1006.57 1007.61 1008.29 1009.02 1009.76 1010.72 1011.40 1012.05 1012.77 1013.48 1014.31 1014.93 1015.36 1015.62 1015.95 1016.37 1016.58 1016.73 1016.90 1016.80 1016.57 1016.18 1015.87 1015.75 1016.23 1017.09 1017.39 1017.68 1017.42 1017.08 1016.91 1017.23 1017.33 1017.84 1017.71 1017.88 1017.91
997.91 997.15 997.35 998.22 999.11 999.36 999.76 1000.53 1001.61 1002.40 1003.01 1004.08 1005.24 1006.66 1007.43 1008.27 1009.12 1010.11 1010.81 1011.48 1012.23 1013.10 1013.90 1014.63 1015.09 1015.42 1015.86 1016.24 1016.40 1016.41 1016.80 1016.50 1016.24 1016.48 1017.11 1016.11 1014.87 1016.31 1016.72 1017.15 1017.78 1017.46 1017.13 1016.73 1017.28 1017.56 1017.74 1017.67 1017.50
998.17 997.39 997.39 998.01 999.01 999.42 999.23 999.95 1000.96 1001.85 1002.21 1003.00 1004.00 1005.36 1006.39 1007.22 1008.24 1009.37 1010.25 1010.90 1011.57 1012.35 1013.25 1014.08 1014.69 1015.13 1015.54 1015.98 1016.08 1016.29 1016.83 1016.36 1017.43 1018.26 1016.95 1015.96 1013.53 1017.34 1018.47 1016.87 1016.96 1017.35 1017.26 1016.80 1017.08 1017.26 1017.76 1017.47 1017.03
997.87 997.62 997.63 997.89 998.57 998.84 999.07 999.16 1000.06 1000.88 1001.60 1002.08 1002.80 1004.00 1004.86 1005.95 1007.26 1008.49 1009.55 1010.31 1010.87 1011.54 1012.42 1013.22 1014.06 1014.66 1015.20 1015.60 1015.81 1015.91 1016.58 1016.54 1016.39 1017.49 1016.62 1016.69 1015.86 1016.34 1016.41 1016.57 1016.72 1017.00 1016.64 1016.54 1016.67 1016.90 1017.14 1017.12 1017.15
997.80 997.59 997.96 998.45 998.57 998.65 998.32 998.65 999.03 999.93 1000.81 1001.36 1001.95 1002.67 1003.49 1004.65 1005.92 1007.34 1008.53 1009.47 1010.14 1010.78 1011.50 1012.35 1013.40 1014.13 1014.61 1015.15 1015.46 1015.48 1015.87 1015.81 1015.17 1015.76 1016.17 1015.76 1015.60 1015.72 1016.05 1016.10 1015.88 1016.09 1015.96 1015.96 1016.07 1016.20 1016.39 1016.63 1016.86
998.01 998.49 998.77 999.00 998.81 998.47 998.20 998.11 998.17 998.87 999.70 1000.42 1000.99 1001.46 1002.44 1003.57 1004.81 1006.08 1007.58 1008.65 1009.40 1009.91 1010.60 1011.50 1012.55 1013.38 1014.08 1014.42 1014.87 1015.18 1015.29 1015.45 1015.43 1015.53 1015.45 1015.24 1014.76 1015.09 1015.28 1015.08 1015.19 1015.33 1015.47 1015.60 1015.65 1015.85 1015.96 1016.13 1016.22
998.15 998.54 998.68 998.76 998.35 997.83 997.35 997.83 998.29 998.01 998.93 999.27 999.64 1000.37 1001.34 1002.44 1003.63 1004.88 1006.09 1007.57 1008.59 1008.97 1009.49 1010.38 1011.52 1012.47 1013.16 1013.71 1014.04 1014.44 1014.70 1014.84 1015.02 1015.07 1014.99 1014.87 1014.61 1014.58 1014.81 1014.79 1014.92 1015.09 1015.31 1015.26 1015.24 1015.49 1015.48 1015.55 1015.55
998.04 998.21 997.58 997.00 996.99 996.90 997.50 997.57 997.83 998.51 999.25 999.55 999.75 1000.03 1000.45 1001.35 1002.54 1003.41 1004.48 1005.86 1007.36 1008.16 1008.71 1009.40 1010.47 1011.36 1012.06 1012.59 1013.10 1013.52 1013.94 1014.19 1014.30 1014.27 1014.31 1014.11 1014.10 1014.19 1014.32 1014.56 1014.71 1014.84 1015.00 1015.02 1015.08 1015.28 1015.16 1014.92 1014.78
997.82 998.10 997.79 997.48 997.15 997.15 997.19 997.72 998.26 998.57 999.01 999.42 999.93 1000.01 1000.04 1000.51 1001.22 1002.53 1003.74 1005.09 1006.50 1007.67 1008.18 1008.77 1009.71 1010.36 1010.83 1011.19 1011.64 1012.22 1012.85 1013.37 1013.57 1013.75 1014.04 1014.13 1014.06 1014.13 1014.35 1014.40 1014.53 1014.73 1014.81 1014.96 1015.04 1014.91 1014.69 1014.47 1014.15
997.05 997.68 997.93 997.66 997.27 996.83 996.98 997.68 997.96 998.66 999.14 999.62 1000.13 1000.08 1000.04 1000.32 1000.54 1002.09 1003.15 1004.46 1005.73 1006.63 1008.08 1008.11 1008.93 1009.25 1009.39 1009.92 1010.64 1011.15 1011.57 1012.14 1012.77 1013.32 1013.66 1014.03 1014.14 1014.34 1014.50 1014.61 1014.60 1014.54 1014.60 1014.67 1014.63 1014.40 1014.02 1013.68 1013.31
997.09 997.22 997.44 997.26 997.27 997.18 997.53 998.76 998.82 999.14 999.49 999.94 1000.21 1000.31 1000.35 1000.56 1000.90 1001.65 1002.75 1003.99 1005.54 1006.26 1006.92 1007.21 1006.05 1006.46 1008.31 1010.26 1011.18 1011.64 1011.18 1011.94 1012.33 1012.93 1013.36 1013.83 1014.13 1014.42 1014.60 1014.60 1014.47 1014.33 1014.29 1014.21 1014.08 1013.91 1013.64 1013.27 1012.85
996.56 997.07 997.59 997.38 997.80 997.77 998.17 999.18 999.65 1000.12 1000.28 1000.47 1000.45 1000.87 1001.20 1001.23 1001.56 1002.36 1003.29 1004.55 1005.20 1007.85 1006.36 1006.59 1006.60 1006.28 1007.77 1008.35 1008.52 1011.31 1008.88 1010.32 1011.44 1013.18 1013.52 1013.88 1014.07 1014.36 1014.40 1014.29 1014.10 1013.99 1013.91 1013.80 1013.62 1013.30 1012.97 1012.66 1012.37
Thickness
5848 5849 5853 5846 5799 5840 5813 5812 5832 5818 5818 5834 5830 5818 5798 5798 5788 5755 5780 5776 5778 5776 5771 5767 5765 5765 5764 5766 5769 5769 5769 5768 5768 5770 5767 5765 5764 5768 5768 5767 5766 5765 5765 5764 5764 5763 5764 5766 5768
5861 5866 5859 5838 5811 5818 5811 5830 5814 5823 5835 5838 5827 5816 5799 5776 5788 5779 5779 5785 5781 5773 5768 5764 5762 5760 5761 5762 5764 5764 5764 5765 5765 5763 5766 5766 5766 5766 5766 5765 5766 5765 5765 5764 5764 5764 5762 5765 5767
5860 5870 5839 5830 5844 5815 5813 5836 5828 5832 5840 5834 5816 5812 5800 5777 5790 5781 5784 5783 5775 5767 5761 5757 5758 5760 5758 5759 5759 5760 5762 5763 5761 5760 5762 5762 5766 5767 5768 5766 5765 5765 5766 5765 5765 5764 5764 5766 5765
5868 5864 5855 5854 5831 5838 5830 5837 5842 5834 5835 5829 5824 5787 5792 5800 5790 5787 5786 5783 5773 5762 5755 5755 5756 5755 5754 5754 5753 5756 5757 5758 5759 5759 5761 5761 5763 5767 5767 5767 5766 5766 5766 5766 5763 5763 5764 5768 5767
5867 5856 5835 5848 5840 5847 5848 5846 5839 5823 5819 5812 5804 5775 5774 5787 5793 5787 5783 5779 5770 5761 5755 5754 5755 5754 5751 5750 5749 5752 5754 5754 5755 5757 5759 5762 5762 5764 5766 5766 5766 5766 5766 5766 5764 5763 5765 5769 5767
5806 5818 5832 5838 5845 5843 5853 5861 5850 5833 5823 5815 5799 5781 5769 5788 5783 5778 5778 5774 5765 5759 5754 5751 5748 5747 5747 5747 5747 5748 5750 5752 5753 5756 5759 5762 5762 5763 5764 5764 5766 5766 5766 5767 5765 5763 5764 5770 5770
5828 5796 5820 5849 5846 5847 5852 5861 5843 5832 5827 5817 5815 5780 5773 5780 5781 5779 5774 5768 5762 5756 5753 5750 5746 5747 5746 5746 5745 5745 5743 5746 5751 5755 5758 5761 5762 5762 5762 5763 5764 5766 5767 5767 5767 5766 5764 5770 5772
5876 5847 5852 5869 5848 5843 5863 5859 5856 5840 5827 5838 5830 5783 5767 5779 5787 5779 5770 5762 5757 5754 5752 5750 5747 5747 5751 5749 5746 5745 5744 5744 5748 5754 5758 5760 5761 5760 5762 5763 5763 5765 5768 5769 5768 5768 5768 5772 5775
5912 5871 5851 5859 5854 5843 5866 5847 5854 5857 5835 5830 5823 5805 5789 5791 5787 5773 5764 5757 5755 5752 5749 5748 5749 5749 5752 5749 5749 5749 5748 5747 5749 5755 5756 5758 5761 5760 5762 5764 5765 5766 5767 5769 5770 5771 5771 5774 5776
5892 5873 5862 5880 5879 5865 5867 5851 5842 5833 5822 5813 5810 5804 5802 5794 5787 5775 5768 5762 5757 5752 5750 5750 5751 5751 5752 5752 5751 5749 5750 5748 5751 5754 5758 5761 5761 5762 5764 5764 5765 5767 5767 5769 5770 5770 5773 5775 5779
5900 5872 5887 5878 5884 5882 5866 5850 5855 5837 5816 5814 5807 5808 5803 5798 5791 5779 5776 5768 5764 5758 5752 5753 5751 5752 5752 5752 5751 5749 5749 5751 5755 5755 5757 5760 5761 5761 5764 5764 5766 5768 5769 5771 5772 5772 5773 5777 5782
5877 5888 5889 5887 5891 5883 5868 5870 5847 5844 5830 5829 5823 5824 5809 5802 5790 5784 5778 5773 5772 5765 5761 5758 5754 5753 5750 5748 5749 5750 5750 5754 5756 5757 5759 5760 5763 5763 5766 5766 5768 5771 5771 5771 5773 5774 5776 5779 5781
5888 5885 5896 5892 5889 5884 5882 5858 5847 5836 5837 5833 5828 5824 5819 5807 5798 5796 5789 5787 5781 5771 5768 5766 5762 5751 5745 5747 5746 5750 5754 5757 5757 5759 5761 5761 5761 5761 5764 5766 5771 5771 5772 5771 5772 5773 5776 5776 5776
5889 5886 5890 5889 5881 5886 5868 5855 5848 5837 5841 5829 5825 5821 5821 5811 5805 5802 5795 5792 5784 5779 5774 5772 5764 5753 5750 5754 5754 5754 5758 5762 5763 5765 5766 5764 5763 5761 5764 5768 5769 5771 5771 5771 5771 5771 5771 5772 5773
5887 5869 5886 5884 5881 5879 5867 5833 5832 5844 5842 5828 5825 5824 5819 5816 5813 5807 5805 5797 5794 5787 5784 5778 5775 5762 5756 5756 5761 5762 5768 5768 5769 5771 5771 5769 5768 5767 5768 5768 5769 5770 5769 5768 5767 5766 5767 5769 5771
5870 5882 5861 5883 5885 5883 5858 5820 5844 5851 5839 5828 5826 5825 5819 5817 5814 5814 5812 5808 5805 5800 5790 5787 5787 5780 5773 5771 5772 5774 5774 5775 5777 5778 5778 5777 5775 5774 5772 5772 5773 5775 5772 5769 5765 5765 5765 5764 5766
5878 5856 5866 5867 5895 5881 5865 5835 5851 5858 5844 5830 5828 5825 5822 5818 5818 5817 5815 5813 5808 5805 5799 5795 5795 5790 5786 5783 5780 5779 5779 5780 5781 5783 5786 5783 5783 5778 5776 5777 5779 5776 5771 5769 5768 5767 5765 5762 5763
5873 5876 5878 5866 5881 5886 5861 5846 5856 5861 5851 5836 5832 5829 5825 5821 5819 5820 5820 5818 5814 5809 5804 5800 5798 5797 5793 5789 5785 5785 5786 5784 5782 5784 5788 5789 5783 5778 5774 5775 5779 5777 5773 5771 5770 5767 5767 5765 5764
5889 5896 5884 5887 5890 5883 5867 5855 5860 5864 5858 5846 5838 5832 5830 5827 5832 5828 5825 5822 5817 5812 5805 5801 5798 5798 5796 5791 5787 5785 5781 5783 5784 5787 5790 5785 5784 5778 5776 5774 5774 5778 5778 5775 5771 5765 5764 5761 5763
5883 5885 5883 5889 5890 5883 5877 5863 5866 5869 5862 5859 5851 5840 5837 5834 5833 5830 5828 5826 5821 5814 5810 5804 5802 5801 5797 5794 5792 5791 5785 5785 5789 5791 5785 5768 5801 5781 5778 5776 5771 5772 5774 5777 5768 5756 5757 5761 5762
5875 5880 5884 5876 5881 5885 5884 5864 5858 5867 5877 5869 5864 5858 5851 5844 5836 5832 5829 5828 5826 5820 5815 5810 5806 5803 5801 5797 5796 5793 5786 5789 5773 5770 5791 5793 5769 5779 5753 5775 5776 5769 5771 5772 5765 5754 5755 5756 5762
5862 5897 5894 5885 5868 5841 5884 5836 5856 5863 5862 5867 5866 5859 5859 5855 5849 5841 5834 5830 5829 5827 5824 5818 5812 5807 5804 5800 5796 5793 5781 5776 5783 5776 5787 5781 5786 5779 5777 5777 5775 5770 5772 5771 5769 5765 5760 5758 5753
5874 5900 5887 5879 5868 5865 5871 5855 5859 5873 5853 5862 5868 5867 5866 5864 5858 5848 5841 5837 5836 5834 5830 5824 5816 5810 5807 5802 5799 5796 5788 5787 5792 5789 5786 5788 5784 5779 5777 5775 5776 5775 5774 5772 5770 5768 5764 5760 5755
5896 5876 5873 5870 5865 5834 5865 5866 5857 5861 5863 5867 5874 5879 5875 5867 5863 5859 5851 5844 5838 5839 5834 5827 5818 5812 5808 5805 5801 5796 5792 5788 5784 5783 5782 5785 5790 5788 5783 5781 5777 5773 5771 5768 5767 5765 5761 5758 5755
5878 5857 5824 5818 5828 5830 5885 5865 5859 5888 5888 5889 5885 5884 5882 5879 5868 5860 5854 5842 5837 5837 5836 5831 5821 5811 5809 5804 5801 5797 5794 5791 5787 5785 5783 5782 5782 5779 5776 5775 5771 5768 5764 5762 5761 5759 5756 5753 5751
5862 5860 5842 5820 5834 5851 5880 5849 5869 5891 5892 5895 5897 5895 5890 5884 5874 5868 5863 5856 5844 5840 5837 5833 5824 5816 5813 5809 5804 5802 5797 5793 5790 5790 5787 5786 5784 5781 5778 5773 5769 5765 5760 5758 5754 5752 5751 5751 5750
5859 5842 5881 5859 5872 5853 5864 5872 5883 5892 5886 5886 5883 5889 5890 5883 5882 5870 5864 5861 5852 5842 5838 5834 5826 5821 5817 5814 5811 5805 5801 5795 5791 5790 5787 5784 5782 5779 5774 5771 5765 5760 5755 5751 5748 5747 5745 5744 5744
5876 5885 5842 5855 5821 5827 5858 5848 5846 5859 5865 5873 5871 5877 5887 5888 5884 5876 5869 5857 5855 5851 5839 5838 5830 5823 5822 5818 5813 5807 5803 5797 5790 5784 5779 5775 5772 5768 5763 5759 5756 5752 5748 5744 5740 5739 5741 5739 5740
5859 5855 5862 5872 5866 5839 5827 5822 5870 5862 5866 5866 5869 5876 5881 5885 5884 5880 5874 5863 5852 5846 5840 5838 5842 5833 5824 5811 5806 5802 5798 5789 5786 5779 5774 5768 5763 5757 5751 5748 5745 5742 5739 5736 5732 5730 5728 5726 5727
5880 5862 5860 5839 5833 5853 5843 5821 5867 5866 5867 5869 5870 5869 5876 5881 5883 5885 5876 5852 5830 5776 5827 5831 5814 5817 5829 5813 5803 5789 5792 5789 5784 5770 5764 5759 5754 5747 5743 5741 5738 5733 5729 5726 5722 5719 5718 5716 5713